Showing default

OPS 9334 (DATS), 2865

Orbit data source: Space-Track

OPS 9334 (DATS), 2865 is a payload satellite owned by SAMSO (US) in GEO that was launched on Sat, 01 Jul 1967 UTC via a TITAN IIIC launch vehicle from the Air Force Eastern Test Range (AFETR). Payload-class satellites include a variety of spacecraft equipped with specific instruments for various scientific and technological missions. These include communications satellites like Starlink; space stations such as the ISS; scientific satellites like the Hubble; Earth observation satellites from companies like Planet Labs, Umbra, and HawkEye 360; GPS; miniature CubeSats for education and research; and military/defense satellites.

Loading next visibility...
Identifier
2865, 1967-066D
Orbit
GEO
Country
Flag of USUS
Related business
Manufacturer
Philco-Ford WDL
Mission
Non-operational spacecraft
Bus & Motor
IDCSP, Unknown motor
Mass
68 kg wet, 68 kg dry
Launch date (UTC)
1967-07-01 (59 years ago)
Launch vehicle
TITAN IIIC
Launch site
Air Force Eastern Test Range (AFETR)
Object type
Payload
Rocket body
Debris
Shape & HBR
Unknown
Radar Cross Section
Medium (>0.1 m² and <1 m²)

Expand to show TLE details & history
Last TLE update: 8 hours ago

TLE from 8 hours ago
0 OPS 9334 (DATS)
1  2865U 67066D   26121.45514396 -.00000073  00000-0  00000+0 0  9995
2  2865   2.6141  96.9453 0054980 224.6144 270.2780  1.09624306129652
Epoch: 2026-05-01T10:55Z
TLE epoch observation values (Epoch: 2026-05-01T10:55:24.438Z)
Latitude
1.86047°
Longitude
-152.00107°
Altitude
33,352.81 km
Speed
3.167 km/s
True Right ascension
15h 24m 57s
True Declination
1° 51' 31"
Sunlit
Object was in daylight at epoch
Visualization orbit readout
Latitude
Unknown
Longitude
Unknown
Altitude
Unknown
Speed
Unknown
Apparent Right ascension
Unknown
Apparent Declination
Unknown
Sunlit
N/A
Visualization observer readout
Local Sidereal Time
02:44:01
Azimuth
Unknown
Elevation
Unknown
Doppler factor
Unknown
Orbital elements
Apogee altitude
33,572.542 km
Perigee altitude
33,135.646 km
Semi-major axis
39,732.231 km
Eccentricity
0.0055
Inclination
2.6141°
RAAN
96.9453°
Arg. of periapsis
224.6144°
True anomaly
269.64797°
Mean anomaly
270.278°
Eccentric anomaly
269.96299°
Mean motion
0.27405 °/min
Orbital period
1,313.63 mins
BSTAR
0
Loading maneuver chart data...
Computing Atmospheric mass density...
Loading historical data...
Loading historical data...
Loading historical data...
Loading historical data...
Loading historical data...
Loading historical data...
Loading historical data...

Documentation

Showing up to 5 results
|